Time,TemperatureF,DewpointF,PressureIn,WindDirection,WindDirectionDegrees,WindSpeedMPH,WindSpeedGustMPH,Humidity,HourlyPrecipIn,Conditions,Clouds,dailyrainin,SoftwareType,DateUTC
2013-01-08 00:01:00,46.4,41.6,30.08,East,90,0.7,3.4,83,0.00,,,0.00,WUHU216HW,2013-01-08 08:01:00,
2013-01-08 00:06:00,46.4,41.6,30.08,ESE,113,1.1,2.0,83,0.00,,,0.00,WUHU216HW,2013-01-08 08:06:00,
2013-01-08 00:11:00,46.4,41.6,30.08,South,180,2.5,5.6,83,0.00,,,0.00,WUHU216HW,2013-01-08 08:11:00,
2013-01-08 00:16:00,46.3,41.4,30.08,WSW,248,0.7,5.6,83,0.00,,,0.00,WUHU216HW,2013-01-08 08:16:00,
2013-01-08 00:21:00,46.3,41.4,30.08,WNW,293,0.0,2.7,83,0.00,,,0.00,WUHU216HW,2013-01-08 08:21:00,
2013-01-08 00:26:00,46.3,41.4,30.08,South,180,2.7,4.9,83,0.00,,,0.00,WUHU216HW,2013-01-08 08:26:00,
2013-01-08 00:31:00,46.3,41.4,30.08,SSE,158,3.1,4.9,83,0.00,,,0.00,WUHU216HW,2013-01-08 08:31:00,
2013-01-08 00:36:00,46.3,41.4,30.07,SSE,158,1.8,4.9,83,0.00,,,0.00,WUHU216HW,2013-01-08 08:36:00,
2013-01-08 00:41:00,46.3,41.4,30.07,South,180,3.1,3.8,83,0.00,,,0.00,WUHU216HW,2013-01-08 08:41:00,
2013-01-08 00:47:00,46.3,41.4,30.07,SSW,203,1.8,4.0,83,0.00,,,0.00,WUHU216HW,2013-01-08 08:47:00,
2013-01-08 00:52:00,46.3,41.4,30.07,South,180,1.6,4.0,83,0.00,,,0.00,WUHU216HW,2013-01-08 08:52:00,
2013-01-08 00:57:00,46.3,41.4,30.07,South,180,2.5,2.9,83,0.00,,,0.00,WUHU216HW,2013-01-08 08:57:00,
2013-01-08 01:02:00,46.3,41.4,30.07,SW,225,1.8,3.8,83,0.00,,,0.00,WUHU216HW,2013-01-08 09:02:00,
2013-01-08 01:07:00,46.3,41.8,30.07,SSE,158,4.0,4.7,84,0.00,,,0.00,WUHU216HW,2013-01-08 09:07:00,
2013-01-08 01:12:00,46.3,41.8,30.08,South,180,2.7,5.4,84,0.00,,,0.00,WUHU216HW,2013-01-08 09:12:00,
2013-01-08 01:17:00,46.3,41.8,30.07,SSE,158,2.5,7.4,84,0.00,,,0.00,WUHU216HW,2013-01-08 09:17:00,
2013-01-08 01:22:00,46.1,41.6,30.07,SSE,158,4.3,7.4,84,0.00,,,0.00,WUHU216HW,2013-01-08 09:22:00,
2013-01-08 01:27:00,46.3,41.8,30.07,SSW,203,3.4,6.7,84,0.00,,,0.00,WUHU216HW,2013-01-08 09:27:00,
2013-01-08 01:32:00,46.3,41.4,30.07,South,180,3.8,6.7,83,0.00,,,0.00,WUHU216HW,2013-01-08 09:32:00,
2013-01-08 01:38:00,46.3,41.8,30.07,SSE,158,3.8,7.8,84,0.00,,,0.00,WUHU216HW,2013-01-08 09:38:00,
2013-01-08 01:43:00,46.3,41.4,30.07,SE,135,1.3,7.8,83,0.00,,,0.00,WUHU216HW,2013-01-08 09:43:00,
2013-01-08 01:48:00,46.1,41.6,30.07,ESE,113,1.3,5.4,84,0.00,,,0.00,WUHU216HW,2013-01-08 09:48:00,
2013-01-08 01:53:00,46.1,41.2,30.07,SE,135,0.4,1.8,83,0.00,,,0.00,WUHU216HW,2013-01-08 09:53:00,
2013-01-08 01:58:00,46.1,41.2,30.07,SE,135,2.0,3.1,83,0.00,,,0.00,WUHU216HW,2013-01-08 09:58:00,
2013-01-08 02:03:00,46.1,41.2,30.06,South,180,2.0,4.0,83,0.00,,,0.00,WUHU216HW,2013-01-08 10:03:00,
2013-01-08 02:08:00,45.9,41.0,30.06,South,180,1.1,5.6,83,0.00,,,0.00,WUHU216HW,2013-01-08 10:08:00,
2013-01-08 02:13:00,45.9,41.0,30.06,South,180,1.6,5.6,83,0.00,,,0.00,WUHU216HW,2013-01-08 10:13:00,
2013-01-08 02:18:00,45.9,41.4,30.06,South,180,4.3,7.4,84,0.00,,,0.00,WUHU216HW,2013-01-08 10:18:00,
2013-01-08 02:23:00,45.7,41.2,30.06,SSE,158,3.4,7.4,84,0.00,,,0.00,WUHU216HW,2013-01-08 10:23:00,
2013-01-08 02:28:00,45.7,41.2,30.07,South,180,4.7,4.7,84,0.00,,,0.00,WUHU216HW,2013-01-08 10:28:00,
2013-01-08 02:33:00,45.7,41.2,30.06,SE,135,5.4,7.6,84,0.00,,,0.00,WUHU216HW,2013-01-08 10:33:00,
2013-01-08 02:38:00,45.7,41.2,30.07,ESE,113,1.1,7.6,84,0.00,,,0.00,WUHU216HW,2013-01-08 10:38:00,
2013-01-08 02:43:00,45.7,41.2,30.06,South,180,1.6,6.5,84,0.00,,,0.00,WUHU216HW,2013-01-08 10:43:00,
2013-01-08 02:48:00,45.7,41.2,30.07,SSW,203,1.1,4.5,84,0.00,,,0.00,WUHU216HW,2013-01-08 10:48:00,
2013-01-08 02:53:00,45.7,41.2,30.07,South,180,2.2,3.6,84,0.00,,,0.00,WUHU216HW,2013-01-08 10:53:00,
2013-01-08 02:58:00,45.5,41.1,30.07,SSE,158,1.1,4.7,84,0.00,,,0.00,WUHU216HW,2013-01-08 10:58:00,
2013-01-08 03:03:00,45.5,41.1,30.07,South,180,1.3,4.7,84,0.00,,,0.00,WUHU216HW,2013-01-08 11:03:00,
2013-01-08 03:09:00,45.5,41.1,30.07,South,180,2.7,3.4,84,0.00,,,0.00,WUHU216HW,2013-01-08 11:09:00,
2013-01-08 03:14:00,45.5,41.1,30.06,SSE,158,3.4,4.0,84,0.00,,,0.00,WUHU216HW,2013-01-08 11:14:00,
2013-01-08 03:19:00,45.4,40.9,30.07,SSE,158,1.8,4.3,84,0.00,,,0.00,WUHU216HW,2013-01-08 11:19:00,
2013-01-08 03:24:00,45.4,40.9,30.07,South,180,2.5,4.3,84,0.00,,,0.00,WUHU216HW,2013-01-08 11:24:00,
2013-01-08 03:29:00,45.4,41.1,30.06,SSE,158,1.1,4.3,85,0.00,,,0.00,WUHU216HW,2013-01-08 11:29:00,
2013-01-08 03:34:00,45.4,41.1,30.06,SSE,158,4.0,4.7,85,0.00,,,0.00,WUHU216HW,2013-01-08 11:34:00,
2013-01-08 03:39:00,45.4,41.1,30.05,South,180,2.2,6.0,85,0.00,,,0.00,WUHU216HW,2013-01-08 11:39:00,
2013-01-08 03:44:00,45.2,41.0,30.05,South,180,1.1,6.0,85,0.00,,,0.00,WUHU216HW,2013-01-08 11:44:00,
2013-01-08 03:49:00,45.2,41.0,30.05,SSW,203,1.3,3.6,85,0.00,,,0.00,WUHU216HW,2013-01-08 11:49:00,
2013-01-08 03:54:00,45.0,40.8,30.05,South,180,1.1,3.6,85,0.00,,,0.00,WUHU216HW,2013-01-08 11:54:00,
2013-01-08 03:59:00,45.2,41.0,30.05,SSW,203,0.7,3.6,85,0.00,,,0.00,WUHU216HW,2013-01-08 11:59:00,
2013-01-08 04:05:00,45.0,40.8,30.05,South,180,1.1,2.0,85,0.00,,,0.00,WUHU216HW,2013-01-08 12:05:00,
2013-01-08 04:10:00,45.0,40.8,30.05,SSW,203,0.4,2.0,85,0.00,,,0.00,WUHU216HW,2013-01-08 12:10:00,
2013-01-08 04:15:00,45.0,40.8,30.05,SSW,203,0.2,1.3,85,0.00,,,0.00,WUHU216HW,2013-01-08 12:15:00,
2013-01-08 04:20:00,45.0,40.8,30.05,SSW,203,0.0,1.1,85,0.00,,,0.00,WUHU216HW,2013-01-08 12:20:00,
2013-01-08 04:25:00,45.0,40.8,30.05,SSE,158,0.0,0.4,85,0.00,,,0.00,WUHU216HW,2013-01-08 12:25:00,
2013-01-08 04:30:00,45.0,40.8,30.05,SSW,203,0.4,0.4,85,0.00,,,0.00,WUHU216HW,2013-01-08 12:30:00,
2013-01-08 04:35:00,45.2,41.0,30.05,SSE,158,1.6,1.6,85,0.00,,,0.00,WUHU216HW,2013-01-08 12:35:00,
2013-01-08 04:40:00,45.0,40.8,30.04,SSE,158,0.7,1.6,85,0.00,,,0.00,WUHU216HW,2013-01-08 12:40:00,
2013-01-08 04:45:00,45.0,40.8,30.04,SSE,158,1.1,1.1,85,0.00,,,0.00,WUHU216HW,2013-01-08 12:45:00,
2013-01-08 04:51:00,45.0,40.8,30.04,SSE,158,1.1,1.8,85,0.00,,,0.00,WUHU216HW,2013-01-08 12:51:00,
2013-01-08 04:56:00,45.0,40.8,30.04,SSE,158,3.4,3.4,85,0.00,,,0.00,WUHU216HW,2013-01-08 12:56:00,
2013-01-08 05:01:00,45.0,40.8,30.04,SSE,158,0.4,4.9,85,0.00,,,0.00,WUHU216HW,2013-01-08 13:01:00,
2013-01-08 05:06:00,45.0,41.0,30.04,SSE,158,1.1,5.1,86,0.00,,,0.00,WUHU216HW,2013-01-08 13:06:00,
2013-01-08 05:11:00,45.0,41.0,30.04,SSE,158,1.1,5.1,86,0.00,,,0.00,WUHU216HW,2013-01-08 13:11:00,
2013-01-08 05:16:00,45.0,41.0,30.04,ESE,113,1.3,4.7,86,0.00,,,0.00,WUHU216HW,2013-01-08 13:16:00,
2013-01-08 05:21:00,45.0,41.0,30.03,SSW,203,2.0,4.7,86,0.00,,,0.00,WUHU216HW,2013-01-08 13:21:00,
2013-01-08 05:26:00,45.0,41.0,30.03,South,180,2.2,2.7,86,0.00,,,0.00,WUHU216HW,2013-01-08 13:26:00,
2013-01-08 05:31:00,45.0,41.0,30.03,SSE,158,2.2,2.7,86,0.00,,,0.00,WUHU216HW,2013-01-08 13:31:00,
2013-01-08 05:36:00,45.0,41.0,30.03,SSE,158,0.9,2.2,86,0.00,,,0.00,WUHU216HW,2013-01-08 13:36:00,
2013-01-08 05:41:00,45.0,41.0,30.03,South,180,0.4,2.2,86,0.00,,,0.00,WUHU216HW,2013-01-08 13:41:00,
2013-01-08 05:47:00,45.0,41.0,30.03,SSE,158,2.5,2.7,86,0.00,,,0.00,WUHU216HW,2013-01-08 13:47:00,
2013-01-08 05:52:00,45.0,41.0,30.03,South,180,1.6,2.7,86,0.00,,,0.00,WUHU216HW,2013-01-08 13:52:00,
2013-01-08 05:57:00,44.8,40.9,30.03,SSE,158,2.0,3.4,86,0.00,,,0.00,WUHU216HW,2013-01-08 13:57:00,
2013-01-08 06:02:00,44.8,40.9,30.03,SE,135,2.0,3.4,86,0.00,,,0.00,WUHU216HW,2013-01-08 14:02:00,
2013-01-08 06:07:00,45.0,41.0,30.02,SE,135,0.4,2.9,86,0.00,,,0.00,WUHU216HW,2013-01-08 14:07:00,
2013-01-08 06:12:00,45.0,41.0,30.02,SSE,158,1.8,2.2,86,0.00,,,0.00,WUHU216HW,2013-01-08 14:12:00,
2013-01-08 06:17:00,45.0,41.0,30.02,SSE,158,1.8,4.0,86,0.00,,,0.00,WUHU216HW,2013-01-08 14:17:00,
2013-01-08 06:22:00,44.8,40.9,30.01,South,180,0.2,4.0,86,0.01,,,0.00,WUHU216HW,2013-01-08 14:22:00,
2013-01-08 06:27:00,44.8,41.2,30.01,SSE,158,2.5,3.1,87,0.01,,,0.00,WUHU216HW,2013-01-08 14:27:00,
2013-01-08 06:32:00,44.8,41.2,30.01,SSE,158,1.8,3.1,87,0.01,,,0.00,WUHU216HW,2013-01-08 14:32:00,
2013-01-08 06:37:00,44.6,41.1,30.00,SE,135,0.4,2.7,87,0.02,,,0.02,WUHU216HW,2013-01-08 14:37:00,
2013-01-08 06:42:00,44.6,41.1,30.00,SSW,203,1.1,2.7,87,0.02,,,0.02,WUHU216HW,2013-01-08 14:42:00,
2013-01-08 06:47:00,44.5,40.9,30.00,South,180,0.7,2.0,87,0.03,,,0.03,WUHU216HW,2013-01-08 14:47:00,
2013-01-08 06:53:00,44.5,40.9,29.99,ESE,113,0.0,1.8,87,0.03,,,0.03,WUHU216HW,2013-01-08 14:53:00,
2013-01-08 06:58:00,44.3,40.7,29.99,ESE,113,0.0,1.1,87,0.04,,,0.04,WUHU216HW,2013-01-08 14:58:00,
2013-01-08 07:03:00,44.3,41.0,29.98,ESE,113,1.1,1.1,88,0.05,,,0.05,WUHU216HW,2013-01-08 15:03:00,
2013-01-08 07:08:00,44.1,40.5,29.98,East,90,0.7,1.1,87,0.05,,,0.05,WUHU216HW,2013-01-08 15:08:00,
2013-01-08 07:13:00,43.9,40.6,29.98,South,180,0.9,2.5,88,0.05,,,0.05,WUHU216HW,2013-01-08 15:13:00,
2013-01-08 07:18:00,43.7,40.2,29.98,South,180,0.4,3.4,87,0.05,,,0.06,WUHU216HW,2013-01-08 15:18:00,
2013-01-08 07:23:00,43.6,40.0,29.98,SSW,203,1.8,3.8,87,0.05,,,0.06,WUHU216HW,2013-01-08 15:23:00,
2013-01-08 07:28:00,43.6,40.0,29.98,South,180,0.0,3.8,87,0.05,,,0.06,WUHU216HW,2013-01-08 15:28:00,
2013-01-08 07:33:00,43.4,40.1,29.98,SE,135,0.9,1.8,88,0.04,,,0.06,WUHU216HW,2013-01-08 15:33:00,
2013-01-08 07:38:00,43.2,39.6,29.98,East,90,0.0,1.8,87,0.05,,,0.07,WUHU216HW,2013-01-08 15:38:00,
2013-01-08 07:43:00,43.2,39.6,29.98,SE,135,0.7,2.2,87,0.04,,,0.07,WUHU216HW,2013-01-08 15:43:00,
2013-01-08 07:49:00,43.0,39.4,29.97,South,180,0.9,2.2,87,0.04,,,0.07,WUHU216HW,2013-01-08 15:49:00,
2013-01-08 07:54:00,42.8,39.3,29.97,SE,135,0.0,2.2,87,0.04,,,0.07,WUHU216HW,2013-01-08 15:54:00,
2013-01-08 07:59:00,42.8,39.3,29.97,SE,135,0.2,1.3,87,0.04,,,0.08,WUHU216HW,2013-01-08 15:59:00,
2013-01-08 08:04:00,42.8,39.3,29.97,South,180,0.0,0.7,87,0.03,,,0.08,WUHU216HW,2013-01-08 16:04:00,
2013-01-08 08:09:00,42.8,39.3,29.97,SSE,158,0.0,0.7,87,0.03,,,0.08,WUHU216HW,2013-01-08 16:09:00,
2013-01-08 08:14:00,42.8,39.3,29.96,South,180,0.0,0.4,87,0.04,,,0.09,WUHU216HW,2013-01-08 16:14:00,
2013-01-08 08:19:00,42.7,39.1,29.96,SSE,158,0.4,0.4,87,0.03,,,0.09,WUHU216HW,2013-01-08 16:19:00,
2013-01-08 08:24:00,42.7,39.1,29.96,ESE,113,0.4,0.4,87,0.03,,,0.09,WUHU216HW,2013-01-08 16:24:00,
2013-01-08 08:29:00,42.5,38.9,29.96,ENE,68,0.0,0.4,87,0.03,,,0.09,WUHU216HW,2013-01-08 16:29:00,
2013-01-08 08:34:00,42.5,38.9,29.96,SE,135,0.0,0.4,87,0.04,,,0.10,WUHU216HW,2013-01-08 16:34:00,
2013-01-08 08:39:00,42.5,38.9,29.96,SE,135,0.7,1.1,87,0.03,,,0.10,WUHU216HW,2013-01-08 16:39:00,
2013-01-08 08:44:00,42.5,38.9,29.96,ESE,113,0.0,2.5,87,0.03,,,0.10,WUHU216HW,2013-01-08 16:44:00,
2013-01-08 08:49:00,42.3,38.7,29.96,ESE,113,0.4,2.5,87,0.04,,,0.11,WUHU216HW,2013-01-08 16:49:00,
2013-01-08 08:55:00,42.3,39.0,29.96,ESE,113,0.7,0.9,88,0.03,,,0.11,WUHU216HW,2013-01-08 16:55:00,
2013-01-08 09:00:00,42.3,39.0,29.96,SE,135,1.6,1.8,88,0.03,,,0.11,WUHU216HW,2013-01-08 17:00:00,
2013-01-08 09:05:00,42.3,39.0,29.96,East,90,1.1,2.0,88,0.04,,,0.12,WUHU216HW,2013-01-08 17:05:00,
2013-01-08 09:10:00,42.3,39.0,29.96,SE,135,1.1,2.0,88,0.04,,,0.12,WUHU216HW,2013-01-08 17:10:00,
2013-01-08 09:15:00,42.3,39.0,29.95,ESE,113,0.9,3.1,88,0.04,,,0.13,WUHU216HW,2013-01-08 17:15:00,
2013-01-08 09:20:00,42.1,38.8,29.95,ESE,113,3.8,3.8,88,0.04,,,0.13,WUHU216HW,2013-01-08 17:20:00,
2013-01-08 09:25:00,42.1,38.8,29.95,ESE,113,0.4,3.8,88,0.05,,,0.14,WUHU216HW,2013-01-08 17:25:00,
2013-01-08 09:30:00,42.1,38.8,29.94,ESE,113,1.1,3.8,88,0.04,,,0.14,WUHU216HW,2013-01-08 17:30:00,
2013-01-08 09:35:00,42.1,38.8,29.94,SSE,158,1.6,2.0,88,0.05,,,0.15,WUHU216HW,2013-01-08 17:35:00,
2013-01-08 09:40:00,42.1,38.8,29.94,East,90,0.0,1.8,88,0.05,,,0.15,WUHU216HW,2013-01-08 17:40:00,
2013-01-08 09:45:00,42.1,38.8,29.93,ENE,68,0.7,1.6,88,0.04,,,0.15,WUHU216HW,2013-01-08 17:45:00,
2013-01-08 09:50:00,42.1,38.8,29.92,East,90,0.0,1.3,88,0.05,,,0.16,WUHU216HW,2013-01-08 17:50:00,
2013-01-08 09:55:00,42.1,39.2,29.92,NE,45,0.0,1.3,89,0.05,,,0.16,WUHU216HW,2013-01-08 17:55:00,
2013-01-08 10:01:00,42.1,39.2,29.92,South,180,0.0,1.1,89,0.04,,,0.16,WUHU216HW,2013-01-08 18:01:00,
2013-01-08 10:06:00,42.1,39.2,29.91,ESE,113,0.2,4.0,89,0.04,,,0.16,WUHU216HW,2013-01-08 18:06:00,
2013-01-08 10:11:00,42.1,39.2,29.91,South,180,0.2,4.0,89,0.04,,,0.16,WUHU216HW,2013-01-08 18:11:00,
2013-01-08 10:16:00,42.3,39.3,29.91,SSW,203,0.7,3.1,89,0.03,,,0.16,WUHU216HW,2013-01-08 18:16:00,
2013-01-08 10:21:00,42.5,39.5,29.91,SE,135,1.3,3.6,89,0.02,,,0.16,WUHU216HW,2013-01-08 18:21:00,
2013-01-08 10:26:00,42.3,39.3,29.90,East,90,0.4,5.4,89,0.02,,,0.16,WUHU216HW,2013-01-08 18:26:00,
2013-01-08 10:31:00,42.5,39.5,29.90,ESE,113,2.0,5.4,89,0.02,,,0.16,WUHU216HW,2013-01-08 18:31:00,
2013-01-08 10:36:00,42.5,39.5,29.90,SE,135,0.0,3.4,89,0.01,,,0.16,WUHU216HW,2013-01-08 18:36:00,
2013-01-08 10:41:00,42.7,39.7,29.90,SSW,203,0.4,4.0,89,0.01,,,0.16,WUHU216HW,2013-01-08 18:41:00,
2013-01-08 10:46:00,42.7,39.7,29.89,South,180,1.8,4.0,89,0.00,,,0.16,WUHU216HW,2013-01-08 18:46:00,
2013-01-08 10:51:00,42.5,39.5,29.89,SSE,158,1.8,2.9,89,0.01,,,0.17,WUHU216HW,2013-01-08 18:51:00,
2013-01-08 10:56:00,42.7,39.7,29.88,SE,135,0.4,4.0,89,0.01,,,0.17,WUHU216HW,2013-01-08 18:56:00,
2013-01-08 11:01:00,42.5,39.5,29.88,SSE,158,0.7,4.0,89,0.01,,,0.17,WUHU216HW,2013-01-08 19:01:00,
2013-01-08 11:07:00,42.7,39.7,29.87,South,180,0.4,2.7,89,0.01,,,0.17,WUHU216HW,2013-01-08 19:07:00,
2013-01-08 11:12:00,42.8,39.9,29.87,ESE,113,0.4,2.0,89,0.01,,,0.17,WUHU216HW,2013-01-08 19:12:00,
2013-01-08 11:17:00,42.8,39.9,29.87,ESE,113,0.2,2.0,89,0.01,,,0.17,WUHU216HW,2013-01-08 19:17:00,
2013-01-08 11:22:00,42.8,40.1,29.86,ESE,113,0.7,1.8,90,0.02,,,0.18,WUHU216HW,2013-01-08 19:22:00,
2013-01-08 11:27:00,42.8,40.1,29.86,South,180,0.0,2.5,90,0.02,,,0.18,WUHU216HW,2013-01-08 19:27:00,
2013-01-08 11:32:00,43.0,40.3,29.86,SSE,158,0.4,2.5,90,0.02,,,0.18,WUHU216HW,2013-01-08 19:32:00,
2013-01-08 11:37:00,43.0,40.3,29.86,SSE,158,0.0,1.1,90,0.02,,,0.18,WUHU216HW,2013-01-08 19:37:00,
2013-01-08 11:42:00,43.0,40.3,29.86,West,270,0.0,0.2,90,0.02,,,0.18,WUHU216HW,2013-01-08 19:42:00,
2013-01-08 11:47:00,43.2,40.5,29.85,ESE,113,0.4,0.4,90,0.02,,,0.18,WUHU216HW,2013-01-08 19:47:00,
2013-01-08 11:52:00,43.2,40.5,29.85,NE,45,0.4,0.4,90,0.02,,,0.19,WUHU216HW,2013-01-08 19:52:00,
2013-01-08 11:57:00,43.2,40.5,29.85,NNE,23,0.2,0.4,90,0.02,,,0.19,WUHU216HW,2013-01-08 19:57:00,
2013-01-08 12:02:00,43.4,40.7,29.84,ENE,68,0.2,1.1,90,0.02,,,0.19,WUHU216HW,2013-01-08 20:02:00,
2013-01-08 12:07:00,43.4,40.7,29.84,South,180,0.2,1.1,90,0.02,,,0.19,WUHU216HW,2013-01-08 20:07:00,
2013-01-08 12:12:00,43.6,40.9,29.84,SE,135,0.0,0.7,90,0.02,,,0.19,WUHU216HW,2013-01-08 20:12:00,
2013-01-08 12:18:00,43.6,40.9,29.84,ESE,113,0.4,1.1,90,0.01,,,0.19,WUHU216HW,2013-01-08 20:18:00,
2013-01-08 12:23:00,43.6,40.9,29.84,SE,135,0.0,1.1,90,0.02,,,0.20,WUHU216HW,2013-01-08 20:23:00,
2013-01-08 12:28:00,43.7,41.0,29.83,ESE,113,0.9,1.1,90,0.02,,,0.20,WUHU216HW,2013-01-08 20:28:00,
2013-01-08 12:33:00,43.9,41.2,29.83,ESE,113,0.4,1.1,90,0.02,,,0.20,WUHU216HW,2013-01-08 20:33:00,
2013-01-08 12:38:00,44.1,41.4,29.82,SW,225,0.4,1.3,90,0.02,,,0.20,WUHU216HW,2013-01-08 20:38:00,
2013-01-08 12:43:00,44.3,41.6,29.82,ESE,113,2.2,6.3,90,0.02,,,0.20,WUHU216HW,2013-01-08 20:43:00,
2013-01-08 12:48:00,44.5,41.8,29.82,North,0,0.9,6.3,90,0.01,,,0.20,WUHU216HW,2013-01-08 20:48:00,
2013-01-08 12:53:00,44.6,42.2,29.82,SE,135,1.8,4.9,91,0.01,,,0.20,WUHU216HW,2013-01-08 20:53:00,
2013-01-08 12:58:00,45.0,42.8,29.82,South,180,1.1,5.8,92,0.01,,,0.20,WUHU216HW,2013-01-08 20:58:00,
2013-01-08 13:03:00,45.4,42.9,29.81,SSE,158,2.9,5.8,91,0.01,,,0.20,WUHU216HW,2013-01-08 21:03:00,
2013-01-08 13:08:00,45.7,43.3,29.81,SE,135,0.4,6.7,91,0.02,,,0.21,WUHU216HW,2013-01-08 21:08:00,
2013-01-08 13:13:00,46.1,43.9,29.81,SSE,158,6.3,6.7,92,0.02,,,0.21,WUHU216HW,2013-01-08 21:13:00,
2013-01-08 13:19:00,46.6,44.5,29.80,SSW,203,5.4,9.4,92,0.02,,,0.21,WUHU216HW,2013-01-08 21:19:00,
2013-01-08 13:24:00,47.0,44.8,29.80,South,180,2.7,9.4,92,0.01,,,0.21,WUHU216HW,2013-01-08 21:24:00,
2013-01-08 13:29:00,47.2,45.0,29.79,South,180,4.7,9.4,92,0.01,,,0.21,WUHU216HW,2013-01-08 21:29:00,
2013-01-08 13:34:00,47.5,45.4,29.79,South,180,4.7,11.4,92,0.01,,,0.21,WUHU216HW,2013-01-08 21:34:00,
2013-01-08 13:39:00,47.7,45.5,29.79,ESE,113,4.5,11.4,92,0.02,,,0.22,WUHU216HW,2013-01-08 21:39:00,
2013-01-08 13:44:00,47.9,45.7,29.79,SSE,158,7.8,8.7,92,0.02,,,0.22,WUHU216HW,2013-01-08 21:44:00,
2013-01-08 13:49:00,47.9,45.7,29.78,SSW,203,2.5,8.5,92,0.02,,,0.22,WUHU216HW,2013-01-08 21:49:00,
2013-01-08 13:54:00,48.1,45.9,29.78,SE,135,1.3,8.5,92,0.02,,,0.22,WUHU216HW,2013-01-08 21:54:00,
2013-01-08 13:59:00,48.2,46.1,29.78,SSE,158,2.7,10.3,92,0.03,,,0.23,WUHU216HW,2013-01-08 21:59:00,
2013-01-08 14:04:00,48.2,46.1,29.79,SSW,203,3.4,13.4,92,0.03,,,0.23,WUHU216HW,2013-01-08 22:04:00,
2013-01-08 14:09:00,48.4,46.3,29.79,South,180,6.3,13.4,92,0.02,,,0.23,WUHU216HW,2013-01-08 22:09:00,
2013-01-08 14:15:00,48.4,46.3,29.78,SSE,158,2.0,9.8,92,0.02,,,0.23,WUHU216HW,2013-01-08 22:15:00,
2013-01-08 14:20:00,48.4,46.3,29.79,South,180,4.7,9.4,92,0.02,,,0.23,WUHU216HW,2013-01-08 22:20:00,
2013-01-08 14:25:00,48.4,46.3,29.79,South,180,4.7,8.5,92,0.03,,,0.24,WUHU216HW,2013-01-08 22:25:00,
2013-01-08 14:30:00,48.6,46.5,29.79,SSW,203,5.6,8.5,92,0.04,,,0.25,WUHU216HW,2013-01-08 22:30:00,
2013-01-08 14:35:00,48.6,46.5,29.79,ESE,113,1.3,8.5,92,0.04,,,0.25,WUHU216HW,2013-01-08 22:35:00,
2013-01-08 14:40:00,48.6,46.5,29.79,ESE,113,3.8,5.8,92,0.04,,,0.26,WUHU216HW,2013-01-08 22:40:00,
2013-01-08 14:45:00,48.6,46.5,29.78,ESE,113,1.6,5.4,92,0.05,,,0.27,WUHU216HW,2013-01-08 22:45:00,
2013-01-08 14:50:00,48.6,46.5,29.79,SSW,203,3.4,5.4,92,0.05,,,0.27,WUHU216HW,2013-01-08 22:50:00,
2013-01-08 14:55:00,48.6,46.5,29.79,SE,135,1.6,5.4,92,0.05,,,0.28,WUHU216HW,2013-01-08 22:55:00,
2013-01-08 15:00:00,48.6,46.5,29.79,SE,135,3.1,4.9,92,0.06,,,0.29,WUHU216HW,2013-01-08 23:00:00,
2013-01-08 15:05:00,48.8,46.6,29.79,SSE,158,2.5,4.9,92,0.06,,,0.29,WUHU216HW,2013-01-08 23:05:00,
2013-01-08 15:11:00,48.8,46.6,29.79,SSE,158,1.8,4.7,92,0.07,,,0.30,WUHU216HW,2013-01-08 23:11:00,
2013-01-08 15:16:00,48.8,46.6,29.79,SSE,158,4.0,6.7,92,0.07,,,0.30,WUHU216HW,2013-01-08 23:16:00,
2013-01-08 15:21:00,49.0,46.7,29.79,SE,135,3.6,6.7,92,0.08,,,0.32,WUHU216HW,2013-01-08 23:21:00,
2013-01-08 15:26:00,49.0,46.7,29.78,SW,225,3.4,5.6,92,0.08,,,0.32,WUHU216HW,2013-01-08 23:26:00,
2013-01-08 15:31:00,49.0,46.7,29.78,SSE,158,6.7,6.7,92,0.08,,,0.33,WUHU216HW,2013-01-08 23:31:00,
2013-01-08 15:36:00,49.0,46.7,29.78,South,180,3.8,6.7,92,0.09,,,0.35,WUHU216HW,2013-01-08 23:36:00,
2013-01-08 15:41:00,49.1,46.9,29.78,SSE,158,1.1,7.4,92,0.08,,,0.35,WUHU216HW,2013-01-08 23:41:00,
2013-01-08 15:46:00,49.0,46.7,29.77,SE,135,4.0,7.4,92,0.09,,,0.36,WUHU216HW,2013-01-08 23:46:00,
2013-01-08 15:51:00,49.1,46.9,29.77,SE,135,4.9,4.9,92,0.08,,,0.36,WUHU216HW,2013-01-08 23:51:00,
2013-01-08 15:56:00,49.0,46.7,29.76,South,180,2.5,5.4,92,0.08,,,0.37,WUHU216HW,2013-01-08 23:56:00,
2013-01-08 16:01:00,49.1,46.9,29.76,SE,135,4.0,5.4,92,0.08,,,0.37,WUHU216HW,2013-01-09 00:01:00,
2013-01-08 16:06:00,49.1,46.9,29.76,South,180,3.6,5.4,92,0.08,,,0.37,WUHU216HW,2013-01-09 00:06:00,
2013-01-08 16:11:00,49.1,46.9,29.75,ESE,113,3.4,6.0,92,0.07,,,0.37,WUHU216HW,2013-01-09 00:11:00,
2013-01-08 16:16:00,49.1,46.9,29.75,ESE,113,4.7,6.0,92,0.06,,,0.37,WUHU216HW,2013-01-09 00:16:00,
2013-01-08 16:22:00,49.3,47.1,29.75,SSE,158,3.4,11.0,92,0.05,,,0.37,WUHU216HW,2013-01-09 00:22:00,
2013-01-08 16:27:00,49.5,47.3,29.74,SE,135,2.5,15.0,92,0.04,,,0.37,WUHU216HW,2013-01-09 00:27:00,
2013-01-08 16:32:00,49.7,47.4,29.74,South,180,3.6,15.0,92,0.02,,,0.37,WUHU216HW,2013-01-09 00:32:00,
2013-01-08 16:37:00,49.7,47.4,29.74,South,180,2.9,10.5,92,0.02,,,0.37,WUHU216HW,2013-01-09 00:37:00,
2013-01-08 16:42:00,49.9,47.6,29.74,SSE,158,6.5,9.2,92,0.02,,,0.37,WUHU216HW,2013-01-09 00:42:00,
2013-01-08 16:47:00,50.0,47.7,29.74,SE,135,1.1,8.9,92,0.01,,,0.37,WUHU216HW,2013-01-09 00:47:00,
2013-01-08 16:52:00,50.0,47.7,29.74,WSW,248,7.8,7.8,92,0.01,,,0.37,WUHU216HW,2013-01-09 00:52:00,
2013-01-08 16:57:00,50.0,47.7,29.74,SSE,158,5.4,8.5,92,0.00,,,0.37,WUHU216HW,2013-01-09 00:57:00,
2013-01-08 17:02:00,50.2,47.9,29.74,ESE,113,2.9,11.0,92,0.00,,,0.37,WUHU216HW,2013-01-09 01:02:00,
2013-01-08 17:07:00,50.4,48.1,29.74,SSE,158,3.4,11.0,92,0.00,,,0.37,WUHU216HW,2013-01-09 01:07:00,
2013-01-08 17:12:00,50.4,48.1,29.73,SE,135,9.8,14.3,92,0.00,,,0.37,WUHU216HW,2013-01-09 01:12:00,
2013-01-08 17:17:00,50.6,48.0,29.73,South,180,3.4,14.3,91,0.00,,,0.37,WUHU216HW,2013-01-09 01:17:00,
2013-01-08 17:22:00,50.6,48.0,29.72,South,180,5.1,13.4,91,0.00,,,0.37,WUHU216HW,2013-01-09 01:22:00,
2013-01-08 17:27:00,50.8,48.2,29.73,SE,135,7.6,13.4,91,0.01,,,0.38,WUHU216HW,2013-01-09 01:27:00,
2013-01-08 17:32:00,50.8,48.2,29.72,SE,135,8.1,14.3,91,0.01,,,0.38,WUHU216HW,2013-01-09 01:32:00,
2013-01-08 17:37:00,50.8,48.2,29.72,SSE,158,4.9,14.3,91,0.01,,,0.38,WUHU216HW,2013-01-09 01:37:00,
2013-01-08 17:42:00,50.8,48.2,29.72,SE,135,2.9,12.3,91,0.01,,,0.38,WUHU216HW,2013-01-09 01:42:00,
2013-01-08 17:47:00,50.8,48.2,29.72,SSW,203,4.3,9.8,91,0.02,,,0.39,WUHU216HW,2013-01-09 01:47:00,
2013-01-08 17:52:00,50.8,48.2,29.72,South,180,2.5,7.6,91,0.02,,,0.39,WUHU216HW,2013-01-09 01:52:00,
2013-01-08 17:57:00,50.8,48.2,29.72,SE,135,5.6,7.2,91,0.03,,,0.40,WUHU216HW,2013-01-09 01:57:00,
2013-01-08 18:02:00,50.8,48.2,29.72,SSE,158,3.6,7.2,91,0.03,,,0.40,WUHU216HW,2013-01-09 02:02:00,
2013-01-08 18:08:00,50.8,48.2,29.72,South,180,2.9,9.6,91,0.04,,,0.41,WUHU216HW,2013-01-09 02:08:00,
2013-01-08 18:13:00,50.8,48.2,29.71,ESE,113,5.1,9.6,91,0.04,,,0.41,WUHU216HW,2013-01-09 02:13:00,
2013-01-08 18:18:00,50.8,48.2,29.71,SSE,158,3.4,6.5,91,0.04,,,0.41,WUHU216HW,2013-01-09 02:18:00,
2013-01-08 18:23:00,50.8,48.2,29.71,South,180,2.5,6.5,91,0.04,,,0.41,WUHU216HW,2013-01-09 02:23:00,
2013-01-08 18:28:00,50.8,48.2,29.71,SSW,203,5.4,13.9,91,0.03,,,0.41,WUHU216HW,2013-01-09 02:28:00,
2013-01-08 18:33:00,50.9,48.3,29.71,SE,135,1.1,13.9,91,0.03,,,0.41,WUHU216HW,2013-01-09 02:33:00,
2013-01-08 18:38:00,51.1,48.2,29.71,WSW,248,4.5,12.8,90,0.03,,,0.41,WUHU216HW,2013-01-09 02:38:00,
2013-01-08 18:43:00,51.1,48.2,29.70,SW,225,2.5,9.8,90,0.02,,,0.41,WUHU216HW,2013-01-09 02:43:00,
2013-01-08 18:48:00,51.1,48.2,29.70,SSW,203,11.2,11.2,90,0.02,,,0.41,WUHU216HW,2013-01-09 02:48:00,
2013-01-08 18:53:00,51.3,48.4,29.70,WNW,293,0.7,11.2,90,0.01,,,0.41,WUHU216HW,2013-01-09 02:53:00,
2013-01-08 18:58:00,51.5,48.3,29.70,SW,225,3.4,11.2,89,0.01,,,0.41,WUHU216HW,2013-01-09 02:58:00,
2013-01-08 19:03:00,51.5,48.3,29.70,WSW,248,7.4,10.5,89,0.00,,,0.41,WUHU216HW,2013-01-09 03:03:00,
2013-01-08 19:09:00,51.5,48.6,29.70,South,180,5.1,10.5,90,0.00,,,0.41,WUHU216HW,2013-01-09 03:09:00,
2013-01-08 19:13:00,51.5,48.3,29.70,South,180,8.9,10.5,89,0.00,,,0.41,WUHU216HW,2013-01-09 03:13:00,
2013-01-08 19:18:00,51.5,48.3,29.69,SSW,203,2.5,8.9,89,0.01,,,0.42,WUHU216HW,2013-01-09 03:18:00,
2013-01-08 19:24:00,51.5,48.3,29.69,SSW,203,4.7,12.3,89,0.01,,,0.42,WUHU216HW,2013-01-09 03:24:00,
2013-01-08 19:29:00,51.5,48.3,29.69,SSE,158,2.5,12.3,89,0.01,,,0.42,WUHU216HW,2013-01-09 03:29:00,
2013-01-08 19:34:00,51.7,48.5,29.69,WSW,248,4.9,9.6,89,0.01,,,0.42,WUHU216HW,2013-01-09 03:34:00,
2013-01-08 19:39:00,51.7,48.5,29.69,SW,225,2.2,6.7,89,0.01,,,0.42,WUHU216HW,2013-01-09 03:39:00,
2013-01-08 19:44:00,51.8,48.7,29.69,South,180,1.6,9.2,89,0.01,,,0.42,WUHU216HW,2013-01-09 03:44:00,
2013-01-08 19:49:00,51.8,48.3,29.69,SSE,158,4.0,9.4,88,0.01,,,0.42,WUHU216HW,2013-01-09 03:49:00,
2013-01-08 19:54:00,51.8,48.3,29.68,SSW,203,6.3,9.4,88,0.01,,,0.42,WUHU216HW,2013-01-09 03:54:00,
2013-01-08 19:59:00,52.0,48.5,29.68,SSE,158,9.4,9.4,88,0.01,,,0.42,WUHU216HW,2013-01-09 03:59:00,
2013-01-08 20:04:00,52.0,48.3,29.68,South,180,3.4,13.0,87,0.01,,,0.42,WUHU216HW,2013-01-09 04:04:00,
2013-01-08 20:09:00,52.2,48.1,29.68,SSW,203,1.6,13.0,86,0.01,,,0.42,WUHU216HW,2013-01-09 04:09:00,
2013-01-08 20:14:00,52.4,48.2,29.68,ESE,113,3.4,17.4,86,0.00,,,0.42,WUHU216HW,2013-01-09 04:14:00,
2013-01-08 20:19:00,52.4,48.2,29.68,SSE,158,7.4,17.4,86,0.00,,,0.42,WUHU216HW,2013-01-09 04:19:00,
2013-01-08 20:24:00,52.4,48.2,29.68,SE,135,3.4,11.6,86,0.00,,,0.42,WUHU216HW,2013-01-09 04:24:00,
2013-01-08 20:30:00,52.4,48.2,29.68,SSE,158,4.7,11.6,86,0.00,,,0.42,WUHU216HW,2013-01-09 04:30:00,
2013-01-08 20:35:00,52.4,48.2,29.68,SSW,203,5.6,11.6,86,0.00,,,0.42,WUHU216HW,2013-01-09 04:35:00,
2013-01-08 20:40:00,52.4,48.2,29.68,SSW,203,4.0,15.0,86,0.00,,,0.42,WUHU216HW,2013-01-09 04:40:00,
2013-01-08 20:45:00,52.6,48.4,29.68,SSE,158,9.4,15.0,86,0.00,,,0.42,WUHU216HW,2013-01-09 04:45:00,
2013-01-08 20:50:00,52.6,48.2,29.68,SE,135,8.7,12.1,85,0.00,,,0.42,WUHU216HW,2013-01-09 04:50:00,
2013-01-08 20:55:00,52.6,48.2,29.68,SSE,158,7.6,13.6,85,0.00,,,0.42,WUHU216HW,2013-01-09 04:55:00,
2013-01-08 21:00:00,52.6,48.2,29.68,SSW,203,7.2,13.6,85,0.00,,,0.42,WUHU216HW,2013-01-09 05:00:00,
2013-01-08 21:03:00,52.6,48.2,29.68,SE,135,2.2,11.0,85,0.00,,,0.42,WUHU216HW,2013-01-09 05:03:00,
2013-01-08 21:08:00,52.6,48.2,29.68,SSE,158,3.8,9.2,85,0.00,,,0.42,WUHU216HW,2013-01-09 05:08:00,
2013-01-08 21:13:00,52.4,48.0,29.67,SSW,203,3.6,9.2,85,0.00,,,0.42,WUHU216HW,2013-01-09 05:13:00,
2013-01-08 21:18:00,52.4,48.2,29.68,SE,135,2.7,9.2,86,0.00,,,0.42,WUHU216HW,2013-01-09 05:18:00,
2013-01-08 21:23:00,52.2,48.1,29.67,ENE,68,2.0,8.1,86,0.00,,,0.42,WUHU216HW,2013-01-09 05:23:00,
2013-01-08 21:28:00,52.2,48.1,29.68,South,180,2.2,9.6,86,0.01,,,0.43,WUHU216HW,2013-01-09 05:28:00,
2013-01-08 21:33:00,52.0,47.9,29.68,South,180,6.0,9.6,86,0.01,,,0.43,WUHU216HW,2013-01-09 05:33:00,
2013-01-08 21:38:00,51.8,47.7,29.68,SSW,203,1.8,10.1,86,0.01,,,0.43,WUHU216HW,2013-01-09 05:38:00,
2013-01-08 21:43:00,51.7,47.5,29.67,ESE,113,2.5,10.1,86,0.02,,,0.44,WUHU216HW,2013-01-09 05:43:00,
2013-01-08 21:48:00,51.5,47.7,29.68,SSW,203,6.5,9.4,87,0.03,,,0.45,WUHU216HW,2013-01-09 05:48:00,
2013-01-08 21:54:00,51.5,47.7,29.67,SSE,158,3.4,9.4,87,0.03,,,0.45,WUHU216HW,2013-01-09 05:54:00,
2013-01-08 21:59:00,51.3,47.8,29.67,SSE,158,2.5,14.3,88,0.04,,,0.46,WUHU216HW,2013-01-09 05:59:00,
2013-01-08 22:04:00,51.1,47.6,29.67,SSE,158,2.7,14.3,88,0.05,,,0.47,WUHU216HW,2013-01-09 06:04:00,
2013-01-08 22:09:00,50.9,47.4,29.67,East,90,3.8,8.1,88,0.05,,,0.47,WUHU216HW,2013-01-09 06:09:00,
2013-01-08 22:14:00,50.9,47.4,29.67,SSW,203,1.8,8.1,88,0.05,,,0.47,WUHU216HW,2013-01-09 06:14:00,
2013-01-08 22:19:00,50.8,47.6,29.67,SSE,158,2.7,6.7,89,0.06,,,0.48,WUHU216HW,2013-01-09 06:19:00,
2013-01-08 22:24:00,50.8,47.3,29.67,SSW,203,1.1,6.7,88,0.06,,,0.49,WUHU216HW,2013-01-09 06:24:00,
2013-01-08 22:29:00,50.8,47.3,29.67,SE,135,2.5,6.7,88,0.07,,,0.49,WUHU216HW,2013-01-09 06:29:00,
2013-01-08 22:34:00,50.6,47.1,29.67,SE,135,3.1,4.3,88,0.07,,,0.50,WUHU216HW,2013-01-09 06:34:00,
2013-01-08 22:39:00,50.4,46.9,29.67,East,90,0.9,6.0,88,0.08,,,0.50,WUHU216HW,2013-01-09 06:39:00,
2013-01-08 22:44:00,50.4,46.9,29.66,South,180,4.7,8.5,88,0.06,,,0.51,WUHU216HW,2013-01-09 06:44:00,
2013-01-08 22:49:00,50.4,46.9,29.67,SE,135,5.4,9.2,88,0.07,,,0.52,WUHU216HW,2013-01-09 06:49:00,
2013-01-08 22:54:00,50.4,47.3,29.67,WSW,248,2.5,9.2,89,0.07,,,0.54,WUHU216HW,2013-01-09 06:54:00,
2013-01-08 23:00:00,50.4,47.3,29.66,SSE,158,2.9,7.8,89,0.06,,,0.54,WUHU216HW,2013-01-09 07:00:00,
2013-01-08 23:04:00,50.2,47.1,29.66,South,180,5.1,6.7,89,0.07,,,0.54,WUHU216HW,2013-01-09 07:04:00,
2013-01-08 23:09:00,50.2,47.1,29.66,South,180,1.6,5.1,89,0.08,,,0.56,WUHU216HW,2013-01-09 07:09:00,
2013-01-08 23:15:00,50.2,47.1,29.66,SSE,158,3.6,10.1,89,0.07,,,0.56,WUHU216HW,2013-01-09 07:15:00,
2013-01-08 23:20:00,50.2,47.1,29.66,SSE,158,3.8,10.1,89,0.07,,,0.56,WUHU216HW,2013-01-09 07:20:00,
2013-01-08 23:25:00,50.2,47.3,29.66,South,180,1.8,7.4,90,0.08,,,0.58,WUHU216HW,2013-01-09 07:25:00,
2013-01-08 23:30:00,50.0,47.2,29.67,SW,225,2.9,7.4,90,0.07,,,0.58,WUHU216HW,2013-01-09 07:30:00,
2013-01-08 23:35:00,50.0,47.2,29.67,South,180,4.0,6.7,90,0.07,,,0.58,WUHU216HW,2013-01-09 07:35:00,
2013-01-08 23:40:00,50.0,47.2,29.66,South,180,3.8,6.7,90,0.07,,,0.59,WUHU216HW,2013-01-09 07:40:00,
2013-01-08 23:45:00,50.0,47.2,29.66,SSE,158,1.1,8.7,90,0.06,,,0.59,WUHU216HW,2013-01-09 07:45:00,
2013-01-08 23:50:00,50.0,47.2,29.66,ESE,113,0.9,8.7,90,0.07,,,0.59,WUHU216HW,2013-01-09 07:50:00,
2013-01-08 23:55:00,50.0,47.2,29.67,South,180,3.6,5.4,90,0.06,,,0.59,WUHU216HW,2013-01-09 07:55:00,